Location: Gro� Glienicke
(52.4675°N, 13.1079°E)
Time: 17:26:07
(UTC+00:00)

Cosmos 2221 - Pass Details

Date: 06 July 2020
Orbit: 592 x 617 km, 82.5° (Epoch: 12 August)

Event Time Altitude Azimuth Distance (km) Brightness Sun altitude
Rises 21:04:46 0° 348° (NNW) 2,901 7.6 -10.0°
Reaches altitude 10° 21:07:00 10° 348° (NNW) 1,989 6.5 -10.1°
Maximum altitude 21:11:25 85° 262° (W) 623 2.6 -10.5°
Enters shadow 21:15:15 13° 173° (S) 1,752 4.3 -10.7°
